Change the Weather History Date:

Wednesday, December 19, 2012

  Actual Average Record
Temperature  
Mean Temperature 32 °F -  
Max Temperature 39 °F 32 °F 54 °F (2002)
Min Temperature 27 °F 18 °F -15 °F (1983)
Degree Days  
Heating Degree Days 33    
Moisture  
Dew Point 29 °F    
Average Humidity 87    
Maximum Humidity 100    
Minimum Humidity 78    
Precipitation  
Precipitation 0.03 in - - ()
Sea Level Pressure  
Sea Level Pressure 30.01 in    
Wind  
Wind Speed 6 mph (NNW)    
Max Wind Speed 15 mph    
Max Gust Speed 22 mph    
Visibility 5 miles    
Events Rain    
Averages and records for this station are not official NWS values.
T = Trace of Precipitation, MM = Missing Value Source: NWS Daily Summary

Daily Weather History Graph

Daily Weather History Graph

Search for Another Location

Airport or City:

Trip Planner

Search our weather history database for the weather conditions in past years. The results will help you decide how hot, cold, wet, or windy it might be!

Date:

Astronomy

Dec. 19, 2012 Rise Set
Actual Time 7:17 AM CST 4:19 PM CST
Civil Twilight 6:45 AM CST 4:51 PM CST
Nautical Twilight 6:09 AM CST 5:27 PM CST
Astronomical Twilight 5:35 AM CST 6:02 PM CST
Moon 11:17 AM CST (12/19) 11:57 PM CST (12/19)
Length of Visible Light 10h 06m
Length of Day
9h 01m
Waxing Crescent, 45% of the Moon is Illuminated
Dec 19
Waxing Crescent
Dec 19
First Quarter
Dec 28
Full
Jan 4
Last Quarter
Jan 11
New

Hourly Weather History & Observations

Time (CST) Temp. Windchill Dew Point Humidity Pressure Visibility Wind Dir Wind Speed Gust Speed Precip Events Conditions
12:44 AM 33.8 °F 27.7 °F 32.0 °F 93% 29.84 in 5.0 mi WNW 6.9 mph - N/A   Overcast
12:53 AM 34.0 °F 27.2 °F 32.0 °F 92% 29.87 in 5.0 mi WNW 8.1 mph - N/A   Overcast
1:38 AM 33.8 °F 27.0 °F 30.2 °F 87% 29.87 in 5.0 mi NW 8.1 mph - N/A   Overcast
1:53 AM 33.1 °F 26.1 °F 30.9 °F 92% 29.91 in 5.0 mi WNW 8.1 mph - N/A   Overcast
2:53 AM 30.9 °F 24.3 °F 30.0 °F 96% 29.93 in 4.0 mi West 6.9 mph - N/A   Overcast
3:21 AM 30.2 °F 24.3 °F 28.4 °F 93% 29.91 in 4.0 mi NW 5.8 mph - N/A   Scattered Clouds
3:35 AM 30.2 °F 23.4 °F 28.4 °F 93% 29.92 in 4.0 mi WNW 6.9 mph - N/A   Mostly Cloudy
3:53 AM 30.0 °F 23.2 °F 28.0 °F 92% 29.95 in 4.0 mi WNW 6.9 mph - N/A   Mostly Cloudy
4:20 AM 28.4 °F 24.6 °F 28.4 °F 100% 29.93 in 3.0 mi NW 3.5 mph - N/A   Scattered Clouds
4:53 AM 28.9 °F 23.9 °F 27.0 °F 92% 29.96 in 3.0 mi NW 4.6 mph - N/A   Clear
5:53 AM 27.0 °F 21.6 °F 25.0 °F 92% 30.00 in 4.0 mi SW 4.6 mph - N/A   Clear
6:53 AM 27.0 °F 23.0 °F 25.0 °F 92% 30.03 in 4.0 mi West 3.5 mph - N/A   Clear
7:53 AM 28.0 °F 22.8 °F 25.0 °F 88% 30.05 in 3.0 mi West 4.6 mph - N/A   Partly Cloudy
8:53 AM 28.9 °F 23.9 °F 26.1 °F 89% 30.06 in 3.0 mi West 4.6 mph - N/A   Partly Cloudy
9:53 AM 30.0 °F 26.5 °F 27.0 °F 88% 30.08 in 4.0 mi WNW 3.5 mph - N/A   Clear
10:53 AM 32.0 °F 27.5 °F 27.0 °F 82% 30.08 in 5.0 mi NW 4.6 mph - N/A   Haze
11:53 AM 34.0 °F 28.8 °F 28.0 °F 79% 30.06 in 6.0 mi North 5.8 mph - N/A   Haze
12:53 PM 33.1 °F - 27.0 °F 78% 30.06 in 6.0 mi Calm Calm - N/A   Haze
1:18 PM 33.8 °F - 28.4 °F 81% 30.06 in 6.0 mi Calm Calm - N/A   Haze
1:53 PM 34.0 °F - 28.0 °F 79% 30.07 in 5.0 mi Calm Calm - N/A   Haze
2:53 PM 34.0 °F - 28.9 °F 82% 30.08 in 5.0 mi Calm Calm - N/A   Haze
3:20 PM 33.8 °F - 28.4 °F 81% 30.06 in 6.0 mi Calm Calm - N/A   Haze
3:28 PM 33.8 °F 30.8 °F 28.4 °F 81% 30.07 in 5.0 mi SE 3.5 mph - N/A   Haze
3:53 PM 34.0 °F 31.0 °F 28.0 °F 79% 30.09 in 5.0 mi ESE 3.5 mph - N/A   Haze
4:53 PM 33.1 °F - 28.9 °F 85% 30.09 in 7.0 mi Calm Calm - N/A   Overcast
5:53 PM 33.1 °F 28.7 °F 28.9 °F 85% 30.09 in 6.0 mi NE 4.6 mph - N/A   Overcast
6:38 PM 33.8 °F 28.6 °F 30.2 °F 87% 30.05 in 6.0 mi ENE 5.8 mph - N/A   Overcast
6:53 PM 34.0 °F 28.0 °F 30.0 °F 85% 30.06 in 7.0 mi ENE 6.9 mph - N/A   Overcast
7:53 PM 36.0 °F 30.3 °F 30.9 °F 82% 30.06 in 7.0 mi ENE 6.9 mph - N/A   Overcast
8:53 PM 37.0 °F 30.4 °F 33.1 °F 86% 30.04 in 7.0 mi ENE 9.2 mph - 0.01 in Rain Light Rain
9:53 PM 37.0 °F 28.9 °F 35.1 °F 93% 29.98 in 7.0 mi ENE 12.7 mph - 0.01 in Rain Light Rain
10:53 PM 39.0 °F 30.6 °F 36.0 °F 89% 29.95 in 7.0 mi East 15.0 mph 21.9 mph 0.01 in Rain Light Rain